Osage River (Missouri), Tuscumbia (06926080)

StateMissouriLatestUnknown (37500 cfs)
RiverOsage RiverRatingObservedEstimated
Updated2020-04-04 22:00 (26 minutes ago)Flood - The river is flooding. Obstacles can be treacherous or deadly. The river should be avoided at this stage for casual trips and definitely for the inexperienced. Trips should be attempted only with protective gear and equipment.Flood(none)(none)
Discharge37500 cfs (median: 7680 cfs)High - The river is high and potentially dangerous, especially for the young and / or inexperienced. Normal stream obstacles are sometimes difficult to navigate. Extended distances can be attempted, but canoe travel may not be advisable.High(none)(none)
Height16.47 feetGood - Conditions are ideal for a canoe or kayak. Boats typically will drag on fewer than one-quarter of riffles, if at all, and portages are unnecessary or rare. Normal float lengths can be attempted without a problem.Good(none)(none)
TrendFalling (steady over 24 hours)Low - River is low but can still be floated. Some riffles are okay but most come with significant dragging and might need a portage. Float lengths should be reduced to accommodate low flow, dragging, and portages.Low(none)(none)
USGSExternal icon USGS Site (External icon Google Maps)Poor - River is too low to float comfortably. Most or all riffles will drag or must be portaged and some obstacles (such as slick shelf rock) cause undue problems. Avoid the river at this stage for casual paddling trips.Poor(none)(none)

Trending Data

Plot Image

Trips for Osage River (Missouri), Tuscumbia (06926080)

DateStartEndDistanceConditionDischargeHeightFishingDetails

A total of 0 rows are displayed.

Condition Descriptions

Fishing Conditions

Fish Species

Notes

Classic Trip List

The classic River Trips application is still available for use. It is updated with the new system using a data retrofit. It is no longer maintained. The original River Trips application is no longer updated (as of 1 Dec 2016) but can be checked for errors or for the condition of the data before it was converted to the new system.

Gauge Data Table

ObservationHeightDischargeMaximum
Discharge
Minimum
Discharge
Mean
Discharge
P05P10P20P25P50
(Median)
P75P80P90P95
2020-04-04 22:00 16.47 37500 22900 (2019) 3810 (2016) 10500 3810 4170 7680 19700 22900
2020-04-04 21:00 16.50 37600 22900 (2019) 3810 (2016) 10500 3810 4170 7680 19700 22900
2020-04-04 20:00 16.48 37500 22900 (2019) 3810 (2016) 10500 3810 4170 7680 19700 22900
2020-04-04 19:00 16.45 37400 22900 (2019) 3810 (2016) 10500 3810 4170 7680 19700 22900
2020-04-04 18:00 16.44 37400 22900 (2019) 3810 (2016) 10500 3810 4170 7680 19700 22900
2020-04-04 17:00 16.40 37200 22900 (2019) 3810 (2016) 10500 3810 4170 7680 19700 22900
2020-04-04 16:00 16.34 37000 22900 (2019) 3810 (2016) 10500 3810 4170 7680 19700 22900
2020-04-04 15:00 16.32 37000 22900 (2019) 3810 (2016) 10500 3810 4170 7680 19700 22900
2020-04-04 14:00 16.24 36700 22900 (2019) 3810 (2016) 10500 3810 4170 7680 19700 22900
2020-04-04 13:00 16.18 36500 22900 (2019) 3810 (2016) 10500 3810 4170 7680 19700 22900
2020-04-04 12:00 16.10 36300 22900 (2019) 3810 (2016) 10500 3810 4170 7680 19700 22900
2020-04-04 11:00 16.05 36100 22900 (2019) 3810 (2016) 10500 3810 4170 7680 19700 22900
2020-04-04 10:00 15.99 35900 22900 (2019) 3810 (2016) 10500 3810 4170 7680 19700 22900
2020-04-04 09:00 15.90 35600 22900 (2019) 3810 (2016) 10500 3810 4170 7680 19700 22900
2020-04-04 08:00 15.82 35400 22900 (2019) 3810 (2016) 10500 3810 4170 7680 19700 22900
2020-04-04 07:00 15.70 35000 22900 (2019) 3810 (2016) 10500 3810 4170 7680 19700 22900
2020-04-04 06:00 15.64 34800 22900 (2019) 3810 (2016) 10500 3810 4170 7680 19700 22900
2020-04-04 05:00 15.61 34700 22900 (2019) 3810 (2016) 10500 3810 4170 7680 19700 22900
2020-04-04 04:00 15.69 35000 22900 (2019) 3810 (2016) 10500 3810 4170 7680 19700 22900
2020-04-04 03:00 15.80 35300 22900 (2019) 3810 (2016) 10500 3810 4170 7680 19700 22900
2020-04-04 02:00 16.18 36500 22900 (2019) 3810 (2016) 10500 3810 4170 7680 19700 22900
2020-04-04 01:00 16.48 37500 22900 (2019) 3810 (2016) 10500 3810 4170 7680 19700 22900
2020-04-04 00:00 16.49 37500 22900 (2019) 3810 (2016) 10500 3810 4170 7680 19700 22900
2020-04-03 23:00 16.50 37600 19600 (2018) 3800 (2016) 11100 3800 3880 10500 18900 19600
2020-04-03 22:00 16.48 37500 19600 (2018) 3800 (2016) 11100 3800 3880 10500 18900 19600
2020-04-03 21:00 16.48 37500 19600 (2018) 3800 (2016) 11100 3800 3880 10500 18900 19600
2020-04-03 20:00 16.45 37400 19600 (2018) 3800 (2016) 11100 3800 3880 10500 18900 19600
2020-04-03 19:00 16.47 37500 19600 (2018) 3800 (2016) 11100 3800 3880 10500 18900 19600
2020-04-03 18:00 16.45 37400 19600 (2018) 3800 (2016) 11100 3800 3880 10500 18900 19600
2020-04-03 17:00 16.43 37300 19600 (2018) 3800 (2016) 11100 3800 3880 10500 18900 19600
2020-04-03 16:00 16.41 37300 19600 (2018) 3800 (2016) 11100 3800 3880 10500 18900 19600
2020-04-03 15:00 16.41 37300 19600 (2018) 3800 (2016) 11100 3800 3880 10500 18900 19600
2020-04-03 14:00 16.43 37300 19600 (2018) 3800 (2016) 11100 3800 3880 10500 18900 19600
2020-04-03 13:00 16.49 37500 19600 (2018) 3800 (2016) 11100 3800 3880 10500 18900 19600
2020-04-03 12:00 16.48 37500 19600 (2018) 3800 (2016) 11100 3800 3880 10500 18900 19600
2020-04-03 11:00 16.47 37500 19600 (2018) 3800 (2016) 11100 3800 3880 10500 18900 19600
2020-04-03 10:00 16.45 37400 19600 (2018) 3800 (2016) 11100 3800 3880 10500 18900 19600
2020-04-03 09:00 16.44 37400 19600 (2018) 3800 (2016) 11100 3800 3880 10500 18900 19600
2020-04-03 08:00 16.43 37300 19600 (2018) 3800 (2016) 11100 3800 3880 10500 18900 19600
2020-04-03 07:00 16.42 37300 19600 (2018) 3800 (2016) 11100 3800 3880 10500 18900 19600
2020-04-03 06:00 16.38 37200 19600 (2018) 3800 (2016) 11100 3800 3880 10500 18900 19600
2020-04-03 05:00 16.39 37200 19600 (2018) 3800 (2016) 11100 3800 3880 10500 18900 19600
2020-04-03 04:00 16.37 37100 19600 (2018) 3800 (2016) 11100 3800 3880 10500 18900 19600
2020-04-03 03:00 16.34 37000 19600 (2018) 3800 (2016) 11100 3800 3880 10500 18900 19600
2020-04-03 02:00 16.34 37000 19600 (2018) 3800 (2016) 11100 3800 3880 10500 18900 19600
2020-04-03 01:00 16.28 36800 19600 (2018) 3800 (2016) 11100 3800 3880 10500 18900 19600
2020-04-03 00:00 16.27 36800 19600 (2018) 3800 (2016) 11100 3800 3880 10500 18900 19600

A total of 47 rows are displayed for years 2016 through 2019.